sat.trackr.live / text

‹ back to catalog

STARLINK-34867

NORAD 65459 · 2025-195B

PAYLOAD ACTIVE UNKNOWN

§ Identity

Operator
Country
US
Launch date
2025-09-03
Launch site
AFETR
Launch vehicle
Mass (kg)
RCS (m²)

Purposes: comms

External: N2YO · Heavens-Above · Gunter

§ Orbital elements

Epoch: 2026-09-20T21:30:50.541984Z

Period
93.85 min
Inclination
53.1535°
Eccentricity
0.0001930
Mean motion
15.34404058 rev/d
Perigee alt
461.4 km
Apogee alt
464.0 km
Semi-major
6,840.8 km
B*
6.4062e-4
RAAN
67.7157°
Arg perigee
85.7778°
Mean anomaly
274.3445°
Rev number
5,993

§ Raw data

STARLINK-348671 65459U 25195B   26263.89641831  .00021333  00000+0  64062-3 0  99922 65459  53.1535  67.7157 0001930  85.7778 274.3445 15.34404058 59930

JSON: /api/v1/satellites/65459 · /tle

For live sub-satellite position, see the globe view (requires WebGL).

§ Visibility from observer

Set your observer location to see the next 7 days of passes ≥ 10°. The values pass through the URL so the page stays shareable.

No JS? Fill the form by hand. The geolocation button needs JavaScript.